Location: Newark
(55.2831°N, 38.7366°E)
Time: 16:36:29
(UTC+00:00)

AO-91 - Visible Passes

Search period start: 17 September 2019 00:00
Search period end: 27 September 2019 00:00
Orbit: 453 x 814 km, 97.7° (Epoch: 16 September)

Date Brightness Start Highest point End Pass type
(mag) Time Alt. Az. Time Alt. Az. Time Alt. Az.
17 Sep ? 21:51:05 10° NNE 21:53:53 32° NE 21:53:53 32° NE visible
17 Sep ? 23:27:55 10° N 23:31:19 25° NW 23:31:19 25° NW visible
18 Sep ? 20:37:30 10° NE 20:38:01 11° NE 20:38:01 11° NE visible
18 Sep ? 22:12:35 10° NNE 22:15:27 36° NNE 22:15:27 36° NNE visible
18 Sep ? 23:49:49 10° N 23:52:53 19° NW 23:52:53 19° NW visible
19 Sep ? 20:58:22 10° NE 20:59:35 15° NE 20:59:35 15° NE visible
19 Sep ? 22:34:10 10° N 22:37:01 34° N 22:37:01 34° N visible
20 Sep ? 00:11:57 10° NNW 00:14:12 14° NW 00:14:28 13° NW visible
20 Sep ? 21:19:32 10° NNE 21:21:09 19° NE 21:21:09 19° NE visible
20 Sep ? 22:55:49 10° N 22:58:35 30° NNW 22:58:35 30° NNW visible
21 Sep ? 21:40:52 10° NNE 21:42:43 22° NE 21:42:43 22° NE visible
21 Sep ? 23:17:33 10° N 23:20:09 24° NNW 23:20:09 24° NNW visible
22 Sep ? 22:02:18 10° NNE 22:04:16 25° NNE 22:04:16 25° NNE visible
22 Sep ? 23:39:24 10° N 23:41:43 19° NW 23:41:43 19° NW visible
23 Sep ? 22:23:50 10° NNE 22:25:50 25° N 22:25:50 25° N visible
24 Sep ? 00:01:28 10° NNW 00:03:16 14° NW 00:03:16 14° NW visible
24 Sep ? 21:09:24 10° NE 21:09:57 12° NE 21:09:57 12° NE visible
24 Sep ? 22:45:27 10° N 22:47:23 24° N 22:47:23 24° N visible
25 Sep ? 00:24:25 10° NW 00:24:49 10° NW 00:24:49 10° NW visible
25 Sep ? 21:30:38 10° NNE 21:31:30 15° NNE 21:31:30 15° NNE visible
25 Sep ? 23:07:09 10° N 23:08:56 21° NNW 23:08:56 21° NNW visible
26 Sep ? 21:52:00 10° NNE 21:53:03 17° NNE 21:53:03 17° NNE visible
26 Sep ? 23:28:57 10° N 23:30:29 17° NNW 23:30:29 17° NNW visible
